Location: Muenchen
(48.1800°N, 11.5800°E)
Time: 05:10:05
(UTC+02:00)

ISS - Visible Passes

Search period start: 02 April 2015 00:00
Search period end: 12 April 2015 00:00
Orbit: 396 x 405 km, 51.6° (Epoch: 01 April)

Date Brightness Start Highest point End Pass type
(mag) Time Alt. Az. Time Alt. Az. Time Alt. Az.
03 Apr -0.7 21:41:49 10° SSW 21:41:57 11° SSW 21:41:57 11° SSW visible
04 Apr -1.8 20:49:01 10° S 20:51:18 18° SE 20:51:50 17° SE visible
04 Apr -0.5 22:24:05 10° WSW 22:24:29 13° WSW 22:24:29 13° WSW visible
05 Apr -3.3 21:30:33 10° SW 21:33:45 55° SSE 21:33:59 54° SE visible
06 Apr -2.6 20:37:13 10° SSW 20:40:12 33° SE 20:43:11 10° E visible
06 Apr -2.4 22:13:14 10° W 22:15:47 47° WNW 22:15:47 47° WNW visible
07 Apr -3.4 21:19:29 10° WSW 21:22:45 87° NNW 21:24:42 22° ENE visible
07 Apr -0.6 22:56:13 10° WNW 22:57:18 18° WNW 22:57:18 18° WNW visible
08 Apr -3.3 20:25:50 10° SW 20:29:04 61° SSE 20:32:17 10° ENE visible
08 Apr -2.5 22:02:22 10° W 22:05:33 47° N 22:06:00 43° NNE visible
09 Apr -2.8 21:08:28 10° W 21:11:42 59° NNW 21:14:34 13° ENE visible
09 Apr -1.3 22:45:14 10° WNW 22:47:07 28° NW 22:47:07 28° NW visible
10 Apr -2.3 21:51:21 10° WNW 21:54:29 43° N 21:55:32 31° NE visible
10 Apr 0.0 23:27:54 10° WNW 23:28:06 11° WNW 23:28:06 11° WNW visible
11 Apr -2.4 20:57:23 10° W 21:00:34 46° N 21:03:43 10° ENE visible
11 Apr -2.0 22:34:03 10° WNW 22:36:26 39° NW 22:36:26 39° NW visible
